Content
SEND FEEDBACK

Daily
Averages
Monthly
Summary
United States of America

EDGEFIELD, SOUTH CAROLINA


Home > North America > United States > South Carolina
Elevation: 55 feet     Latitude: 33 47N     Longitude: 081 55W

WEATHER
 
SELECT A DAY
Number of Records: 133,262;   Date Range: 12/7/08 - 8/18/14
 
SHARE

PRINT THIS DATA

[ ← Previous Day ]
WEATHER ALMANAC - FEBRUARY 13, 2013
[ Next Day → ]
[ °C ]   °F
Weather ElementAverageHighLow
Temperature50.2 °F59 °F (1:55 pm)44.6 °F (11:35 pm)
Dewpoint17 °F57.2 °F (1:15 pm) (7:00 pm)
Humidity89.9 %100 % (1:15 pm)76 % (8:55 pm)
Barometer29.82 in29.93 in (11:55 pm)29.75 in (11:55 am)
Wind Speed9 mph24.2 mph (1:55 pm)
Wind Gust32.2 mph (2:15 pm)
Weather ElementAverage
Visibility7.1 mi
Wind DirectionS (174.9 °)

Weather ElementTotal
Precipitation---
Heating Degree Days13.2 (Base 65)
Growing Degree Days1.8 (Base 50)
Averaged from 70 records on February 13, 2013
WEATHER CONDITIONS BREAKOUT
WIND DIRECTION BREAKOUT
WEATHER BY HOUR - FEBRUARY 13, 2013
[ °C ]   °F
Local TimeTemperatureDewpointHumidityBarometerVisibilityWind DirectionWind SpeedGust SpeedPrecipitationEventsConditions
12:35 AM50.0 °F0.0 °F29.92 in4.0 miEast (80°)3.5 mphThunderstorm
12:55 AM50.0 °F0.0 °F29.90 in7.0 miENE (70°)8.1 mphThunderstorm
1:15 AM48.2 °F0.0 °F29.89 in2.0 miENE (70°)10.4 mph19.6 mphRain-ThunderstormThunderstorms and Rain
1:35 AM48.2 °F0.0 °F29.87 in7.0 miENE (60°)12.7 mphRain-ThunderstormRain
2:15 AM48.2 °F0.0 °F29.86 in10.0 miENE (60°)8.1 mphThunderstormOvercast
2:35 AM48.2 °F0.0 °F29.84 in7.0 miEast (80°)8.1 mphThunderstormThunderstorm
2:55 AM46.4 °F0.0 °F29.83 in7.0 miEast (90°)6.9 mphOvercast
3:15 AM48.2 °F0.0 °F29.84 in10.0 miNE (50°)6.9 mphThunderstormOvercast
3:35 AM48.2 °F0.0 °F29.85 in10.0 miNorth (10°)4.6 mphOvercast
3:55 AM48.2 °F0.0 °F29.83 in7.0 miNE (50°)10.4 mphThunderstormOvercast
4:15 AM48.2 °F0.0 °F29.83 in7.0 miNE (40°)8.1 mphThunderstormOvercast
4:35 AM48.2 °F0.0 °F29.82 in7.0 miNE (50°)9.2 mphOvercast
4:55 AM48.2 °F0.0 °F29.80 in5.0 miNE (50°)6.9 mphHaze
5:15 AM48.2 °F0.0 °F29.80 in3.0 miENE (70°)4.6 mphThunderstormOvercast
5:35 AM48.2 °F0.0 °F29.81 in3.0 miENE (60°)8.1 mphOvercast
5:55 AM48.2 °F0.0 °F29.78 in4.0 miENE (70°)9.2 mphHaze
6:15 AM48.2 °F0.0 °F29.82 in3.0 miNNE (30°)5.8 mphOvercast
6:35 AM48.2 °F0.0 °F29.78 in3.0 miEast (90°)8.1 mphOvercast
6:55 AM46.4 °F0.0 °F29.79 in2.0 miEast (90°)6.9 mphOvercast
7:15 AM46.4 °F0.0 °F29.78 in2.5 miEast (100°)8.1 mphOvercast
7:35 AM48.2 °F0.0 °F29.83 in2.5 miCalmLight Drizzle
7:55 AM48.2 °F0.0 °F29.83 in2.0 miCalmRainRain
8:15 AM48.2 °F0.0 °F29.84 in1.2 miCalmLight Drizzle
8:35 AM48.2 °F0.0 °F29.83 in1.8 miESE (120°)3.5 mphOvercast
8:55 AM48.2 °F0.0 °F29.82 in3.0 miESE (120°)4.6 mphOvercast
9:15 AM50.0 °F0.0 °F29.78 in2.5 miSE (140°)9.2 mphOvercast
9:35 AM50.0 °F0.0 °F29.81 in2.5 miSSE (150°)4.6 mphOvercast
9:55 AM50.0 °F0.0 °F29.80 in1.5 miSSE (160°)4.6 mphOvercast
10:15 AM50.0 °F0.0 °F29.78 in0.8 miSE (140°)6.9 mphOvercast
10:35 AM50.0 °F0.0 °F29.80 in0.8 miSouth (190°)4.6 mphOvercast
10:55 AM51.8 °F0.0 °F29.79 in2.0 miSSW (210°)4.6 mphOvercast
11:15 AM53.6 °F0.0 °F29.79 in4.0 miSW (220°)5.8 mphHaze
11:35 AM53.6 °F0.0 °F29.80 in7.0 miWSW (240°)10.4 mphOvercast
11:55 AM53.6 °F0.0 °F29.75 in7.0 miSW (220°)10.4 mphOvercast
12:15 PM55.4 °F0.0 °F29.76 in4.0 miSW (220°)10.4 mph17.3 mphHaze
12:35 PM55.4 °F0.0 °F29.76 in7.0 miSW (230°)11.5 mphOvercast
12:55 PM55.4 °F0.0 °F29.78 in10.0 miWSW (240°)15.0 mph18.4 mphOvercast
1:15 PM57.2 °F57.2 °F100 %29.78 in10.0 miWest (260°)17.3 mph21.9 mphMostly Cloudy
1:35 PM57.2 °F55.4 °F94 %29.75 in10.0 miWSW (250°)20.7 mph31.1 mphMostly Cloudy
1:55 PM59.0 °F53.6 °F82 %29.78 in10.0 miWest (260°)24.2 mph28.8 mphScattered Clouds
2:15 PM55.4 °F51.8 °F88 %29.80 in10.0 miWest (260°)20.7 mph32.2 mphClear
2:35 PM55.4 °F51.8 °F88 %29.77 in10.0 miWest (260°)13.8 mph27.6 mphRainLight Rain
2:55 PM53.6 °F50.0 °F88 %29.79 in10.0 miWest (260°)16.1 mph25.3 mphMostly Cloudy
3:15 PM53.6 °F50.0 °F88 %29.79 in10.0 miWSW (250°)15.0 mph26.5 mphOvercast
3:35 PM53.6 °F51.8 °F94 %29.78 in10.0 miWest (270°)10.4 mphRainLight Rain
3:55 PM51.8 °F51.8 °F100 %29.79 in7.0 miWSW (250°)8.1 mphRainRain
4:15 PM51.8 °F51.8 °F100 %29.78 in10.0 miWSW (240°)6.9 mphOvercast
4:35 PM51.8 °F0.0 °F29.81 in10.0 miWest (260°)8.1 mphOvercast
4:55 PM51.8 °F0.0 °F29.78 in10.0 miSW (220°)8.1 mphOvercast
5:15 PM51.8 °F0.0 °F29.80 in10.0 miWSW (240°)8.1 mphOvercast
5:35 PM51.8 °F0.0 °F29.82 in10.0 miSW (230°)11.5 mphMostly Cloudy
5:55 PM51.8 °F0.0 °F29.82 in10.0 miSW (220°)10.4 mphMostly Cloudy
6:15 PM51.8 °F0.0 °F29.78 in10.0 miWSW (240°)8.1 mphMostly Cloudy
6:35 PM51.8 °F0.0 °F29.81 in10.0 miSW (230°)10.4 mphScattered Clouds
6:55 PM50.0 °F0.0 °F29.81 in10.0 miSW (230°)9.2 mphClear
7:15 PM50.0 °F50.0 °F100 %29.82 in10.0 miSW (230°)10.4 mphClear
7:35 PM50.0 °F50.0 °F100 %29.83 in10.0 miWSW (250°)11.5 mphMostly Cloudy
7:55 PM50.0 °F48.2 °F94 %29.84 in10.0 miWest (270°)11.5 mph24.2 mphScattered Clouds
8:15 PM50.0 °F44.6 °F82 %29.85 in10.0 miWest (270°)11.5 mph25.3 mphClear
8:35 PM50.0 °F44.6 °F82 %29.86 in10.0 miWest (260°)8.1 mphClear
8:55 PM50.0 °F42.8 °F76 %29.88 in10.0 miWest (260°)8.1 mphClear
9:15 PM48.2 °F42.8 °F82 %29.88 in10.0 miWest (270°)11.5 mph16.1 mphClear
9:35 PM48.2 °F42.8 °F82 %29.90 in10.0 miWest (260°)11.5 mphClear
9:55 PM46.4 °F42.8 °F87 %29.90 in10.0 miWest (270°)10.4 mphClear
10:15 PM46.4 °F42.8 °F87 %29.90 in10.0 miWest (270°)10.4 mphClear
10:35 PM46.4 °F42.8 °F87 %29.90 in10.0 miWest (270°)9.2 mphClear
10:55 PM46.4 °F42.8 °F87 %29.92 in10.0 miWest (270°)6.9 mphClear
11:15 PM46.4 °F42.8 °F87 %29.92 in10.0 miWest (270°)8.1 mphClear
11:35 PM44.6 °F42.8 °F93 %29.92 in10.0 miWest (260°)6.9 mphClear
11:55 PM44.6 °F44.6 °F100 %29.93 in10.0 miWest (260°)4.6 mphClear
Hourly data recorded from KAIK, located miles away from Edgefield, South Carolina







STORIES FROM OUR PARTNERS